Location: Mill Creek
(37.3417°N, 89.2526°W)
Time: 19:25:34
(UTC+00:00)

Daily predictions for brighter satellites

Satellite Brightness Start Highest point End
(mag) Time Altitude Azimuth Time Altitude Azimuth Time Altitude Azimuth
Envisat 3.0 12:00:20 10° N 12:05:25 79° WNW 12:10:29 10° SSW
USA 234 3.7 12:08:32 10° NNE 12:14:34 41° NW 12:20:36 10° W
Meteor 1-4 Rocket 2.9 12:11:27 10° NNW 12:14:41 39° W 12:17:54 10° SSW
Cosmos 1937 Rocket 3.8 12:10:00 10° S 12:15:04 72° ESE 12:20:14 10° NNE
Cosmos 2084 3.6 12:11:14 10° NW 12:15:41 66° WSW 12:20:08 10° SSE
Cosmos 1515 Rocket 3.6 12:12:23 10° NNW 12:16:50 71° W 12:21:15 10° S
ATLAS 2AS CENTAUR R/B 3.2 12:09:24 10° SW 12:17:07 54° NW 12:24:51 10° NNE
H-2A R/B 2.4 12:14:13 10° N 12:18:00 53° WNW 12:21:43 10° SSW
FALCON 9 DEB 3.2 12:14:53 10° SW 12:18:04 75° SE 12:21:17 10° NE
Cosmos 1862 3.4 12:14:28 10° S 12:18:30 88° ESE 12:22:34 10° N
Okean O Rocket 1.9 12:15:43 10° NNE 12:20:09 78° ESE 12:24:36 10° S
CENTAUR R/B 3.5 12:15:14 10° NW 12:23:26 56° WSW 12:32:02 10° S
Cosmos 1743 Rocket 3.6 23:05:06 10° N 23:09:33 62° E 23:13:56 10° SSE
Okean O Rocket 1.7 23:10:03 10° SSE 23:14:14 50° ENE 23:18:28 10° N
YAOGAN 6 2.6 23:11:17 10° SSE 23:14:57 89° ENE 23:18:37 10° N
CRYOSAT 2 4.5 23:11:37 10° NNE 23:16:26 57° E 23:21:14 10° S
Cosmos 405 Rocket 2.7 23:13:45 10° N 23:17:37 63° E 23:21:33 10° SSE
Envisat 3.3 23:12:37 10° S 23:17:41 75° WSW 23:22:46 10° NNW
Sich 1 3.9 23:16:50 10° NNE 23:20:38 28° ENE 23:24:24 10° SE
CORIOLIS 4.2 23:16:49 10° SSE 23:22:07 61° ENE 23:27:27 10° N
Cosmos 1980 3.7 23:17:51 10° SSW 23:23:32 89° E 23:29:15 10° NNE
H-2A R/B 3.8 23:25:29 11° ENE 23:26:02 11° ENE 23:27:27 10° NE
Cosmos 1805 Rocket 3.8 23:25:26 10° N 23:29:47 50° E 23:34:04 10° SSE
Cosmos 389 Rocket 2.7 23:28:58 10° S 23:32:16 45° E 23:35:34 10° NNE
USA 267 4.1 23:27:58 10° E 23:33:23 29° NNE 23:38:49 10° NNW
Cosmos 1151 Rocket 4.1 23:30:25 10° SE 23:33:51 24° E 23:37:18 10° NE
Cosmos 1666 Rocket 4.5 23:32:05 10° NNE 23:35:48 26° ENE 23:39:31 10° SE
Cosmos 1606 2.7 23:33:03 10° S 23:36:52 59° E 23:40:42 10° NNE
SMAP 3.2 23:32:17 10° S 23:36:55 79° WSW 23:41:36 10° NNW
BREEZE-M DEB (TANK) 3.6 23:43:39 10° W 23:46:14 25° NW 23:47:24 16° NNE
SL-16 R/B 2.4 23:47:28 10° S 23:52:53 49° ESE 23:57:37 14° NE
Lacrosse 5 rocket 1.7 23:51:16 10° SSW 23:54:41 37° SE 23:55:53 28° E
Cosmos 1943 Rocket 3.7 23:51:45 10° NNE 23:54:14 15° NE 23:54:14 15° NE
H-2A R/B 4.2 23:52:09 10° NNW 23:55:33 25° WNW 23:58:58 10° WSW
Abrixas rocket 2.3 23:52:57 10° NW 23:55:34 38° NNE 23:55:50 37° NE
